Home   Weather   Asuncion   Past weeks

Flag for Paraguay Past Weather in Asuncion, Paraguay — Yesterday and Last 2 Weeks

63 °F

Passing clouds.

Feels Like: 63 °F
Forecast: 56 / 73 °F
Wind: 13 mph from Southwest

Location: Asuncion / Aeropuerto

Current Time: Oct 27, 2016 at 7:55:46 AM

Latest Report: Oct 27, 2016 at 7:00 AM

Visibility: N/A

Pressure: 29.98 "Hg

Humidity: 83%

Dew Point: 57 °F

Location of AsuncionLocation

Past Weather in Asuncion — Graph


Asuncion Temperature Yesterday

Maximum temperature yesterday: 75 °F (at 4:00 PM)
Minimum temperature yesterday: 66 °F (at 10:00 PM)
Average temperature yesterday: 71 °F

High & Low Weather Summary for the Past Weeks

High99 °F (Oct 17, 2:00 PM)100% (Oct 12, 11:00 PM)30.07 "Hg (Oct 12, 11:00 PM)
Low61 °F (Oct 22, 6:00 AM)38% (Oct 22, 1:00 PM)29.53 "Hg (Oct 16, 3:00 PM)
Average79 °F70%29.79 "Hg
* Reported Oct 12 6:00 AM — Oct 27 6:00 AM, Asuncion, Weather by CustomWeather, © 2016

Note: Actual official high and low records may vary slightly from our data, if they occured in-between our weather recording intervals... More about our weather records


Asuncion Weather History for the Previous 24 Hours

Scroll right to see more
Time TempWeatherWind HumidityBarometerVisibility
6:00 AM
Thu, Oct 27
63 °FPartly cloudy.16 mph83%29.95 "HgN/A
5:00 AM63 °FPassing clouds.14 mph83%29.92 "HgN/A
4:00 AM64 °FPassing clouds.13 mph78%29.92 "HgN/A
3:00 AM66 °FClear.13 mph78%29.89 "Hg10 mi
2:00 AM66 °FClear.8 mph78%29.92 "Hg10 mi
1:00 AM63 °FPassing clouds.3 mph94%29.92 "HgN/A
12:00 AM64 °FClear.No wind88%29.92 "Hg10 mi
11:00 PM
Wed, Oct 26
66 °FClear.3 mph83%29.92 "Hg10 mi
10:00 PM66 °FClear.3 mph83%29.92 "Hg10 mi
9:00 PM68 °FClear.7 mph78%29.89 "Hg10 mi
8:00 PM72 °FPassing clouds.8 mph69%29.89 "HgN/A
7:00 PM73 °FBroken clouds.10 mph65%29.86 "HgN/A
6:00 PM75 °FBroken clouds.12 mph61%29.83 "HgN/A
5:00 PM75 °FBroken clouds.14 mph69%29.83 "HgN/A
4:00 PM75 °FPartly sunny.13 mph65%29.83 "HgN/A
3:00 PM73 °FPartly sunny.8 mph74%29.83 "HgN/A
2:00 PM72 °FMostly cloudy.16 mph83%29.86 "HgN/A
1:00 PM72 °FMostly cloudy.14 mph88%29.86 "HgN/A
12:00 PM70 °FLight rain. Mostly cloudy.14 mph94%29.89 "Hg4 mi
11:00 AM70 °FDrizzle. Mostly cloudy.15 mph94%29.89 "HgN/A
10:30 AM68 °FRain. Mostly cloudy.13 mph100%29.89 "Hg1 mi
10:00 AM70 °FDrizzle. Mostly cloudy.10 mph94%29.89 "Hg2 mi
9:30 AM70 °FDrizzle. Mostly cloudy.8 mph94%29.86 "Hg5 mi
9:00 AM70 °FDrizzle. Mostly cloudy.9 mph94%29.86 "Hg3 mi
8:30 AM70 °FDrizzle. Mostly cloudy.13 mph94%29.86 "Hg3 mi
8:00 AM70 °FLight rain. Mostly cloudy.12 mph94%29.83 "HgN/A
Weather by CustomWeather, © 2016

See weather overviewHow to use our weather pages